Tracking 19245 objects as of 17-Aug-2018
HD Live streaming from Space Station
objects crossing your sky now

COSMOS 418

Track COSMOS 418 now!
10-day predictions
COSMOS 418 is classified as:


NORAD ID: 5217
Int'l Code: 1971-041H
Perigee: 1,405.4 km
Apogee: 1,500.0 km
Inclination: 74.0 °
Period: 114.8 minutes
Semi major axis: 7823 km
RCS: 0.6974 m2 (medium)
Launch date: May 7, 1971
Source: Commonwealth of Independent States (former USSR) (CIS)
Launch site: PLESETSK MISSILE AND SPACE COMPLEX (PKMTR)
aabbcc
Your satellite tracking list
Your tracking list is empty




NASA's NSSDC Master Catalog

Two Line Element Set (TLE):
1 05217U 71041H   18228.77907152  .00000000  00000-0  10281-3 0  9992
2 05217  74.0179 330.3052 0060461 252.1885 267.5911 12.54532996165312
Source of the keplerian elements: AFSPC